Regional Weather Roundup
Issued by NWS

Home | Current Version | Previous Version | Text Only | Print | Product List | Glossary Off
Versions: 1 2 3 4 5 6 7 8 9 10 11 12 13 14 15 16 17 18 19 20 21 22 23 24 25 26 27 28 29 30 31 32 33 34 35 36 37 38 39 40 41 42 43 44 45 46 47 48 49 50

000
ASUS43 KOAX 291902
RWRNE

WEATHER ROUNDUP FOR NEBRASKA
NATIONAL WEATHER SERVICE OMAHA NE
200 PM CDT THU SEP 29 2016

NOTES: SATELLITE DATA IS BEING USED TO AUGMENT CLOUD COVER ABOVE
       12000 FEET.
       "FAIR" INDICATES FEW OR NO CLOUDS BELOW 12,000 FEET WITH NO
       SIGNIFICANT WEATHER AND/OR OBSTRUCTIONS TO VISIBILITY.

  * THESE STATIONS DO NOT REPORT WEATHER SUCH AS RAIN...SNOW OR FOG.

NEZ001>004-019>022-054>056-292000-
NEBRASKA PANHANDLE

CITY           SKY/WX    TMP DP  RH WIND       PRES   REMARKS
SCOTTSBLUFF    SUNNY     78  45  30 S18G25    30.28F
ALLIANCE       SUNNY     75  43  31 S21G26    30.31F
CHADRON        SUNNY     79  43  27 S18G25    30.24F
KIMBALL        SUNNY     75  45  34 SE16G22   30.33F
SIDNEY         SUNNY     76  44  32 SE21G29   30.33F
$$

NEZ057>060-069>072-079>082-292000-
SOUTHWEST NEBRASKA

CITY           SKY/WX    TMP DP  RH WIND       PRES   REMARKS
NORTH PLATTE   SUNNY     71  41  33 SE6G17    30.37F
IMPERIAL       SUNNY     72  40  31 SE16G25   30.36F
LEXINGTON      SUNNY     68  43  40 SE9       30.40F
MCCOOK         SUNNY     70  44  39 SE9       30.38F
OGALLALA       SUNNY     74  40  29 SE12G17   30.35F
$$

NEZ005>010-023>029-035>040-094-292000-
NORTH CENTRAL NEBRASKA

CITY           SKY/WX    TMP DP  RH WIND       PRES   REMARKS
VALENTINE      SUNNY     71  41  33 S15G22    30.35F
AINSWORTH      SUNNY     69  43  39 SE13      30.38F
BROKEN BOW     SUNNY     66  43  43 SE10G21   30.40F
O`NEILL        SUNNY     66  44  45 SE6       30.41F
ORD            SUNNY     66  43  43 E10       30.40F
THEDFORD       SUNNY     72  43  35 S10G18    30.38F
$$

NEZ041-046>049-061>064-073>077-083>087-292000-
SOUTH CENTRAL NEBRASKA

CITY           SKY/WX    TMP DP  RH WIND       PRES   REMARKS
GRAND ISLAND   SUNNY     64  45  49 CALM      30.41F
AURORA         SUNNY     65  46  49 SE6       30.41F
HASTINGS       SUNNY     65  45  48 N3        30.42F
HEBRON         MOSUNNY   67  47  48 NE6       30.40F
HOLDREGE       SUNNY     66  40  37 E6        30.40F
KEARNEY *      SUNNY     64  43  45 E6        30.40F
YORK           SUNNY     64  48  55 E7        30.41F
$$

NEZ011>018-030>034-042>045-292000-
NORTHEAST NEBRASKA

CITY           SKY/WX    TMP DP  RH WIND       PRES   REMARKS
NORFOLK        SUNNY     65  46  50 CALM      30.41F
ALBION         SUNNY     65  45  47 CALM      30.41F
BLAIR          MOSUNNY   66  50  55 NE7       30.40F
FREMONT        MOSUNNY   67  49  53 CALM      30.41F
TEKAMAH        PTSUNNY   67  47  48 NE7       30.40F
WAYNE          MOSUNNY   66  49  54 E3        30.42F
$$

NEZ050>053-065>068-078-088>093-292000-
SOUTHEAST NEBRASKA

CITY           SKY/WX    TMP DP  RH WIND       PRES   REMARKS
LINCOLN        MOSUNNY   68  47  46 SE3       30.41F
OMAHA EPPLEY   MOSUNNY   69  50  50 N8G18     30.39F
BEATRICE       MOSUNNY   68  49  51 NE6       30.39F
FALLS CITY     MOSUNNY   70  51  51 MISG      30.36F
NEBRASKA CITY  MOSUNNY   67  42  40 NE5       30.39F
PLATTSMOUTH    PTSUNNY   69  45  42 NE6       30.39F
$$

NEZ044-045-051>053-067-292000-
OMAHA AREA

CITY           SKY/WX    TMP DP  RH WIND       PRES   REMARKS
OMAHA EPPLEY   MOSUNNY   69  50  50 N8G18     30.39F
BLAIR          MOSUNNY   66  50  55 NE7       30.40F
FREMONT        MOSUNNY   67  49  53 CALM      30.41F
MILLARD        MOSUNNY   67  49  51 N6        30.39F
OFFUTT AFB     PTSUNNY   67  50  56 N9        30.38F
PLATTSMOUTH    PTSUNNY   69  45  42 NE6       30.39F
WAHOO          FAIR      68  47  46 NE7       30.40F
$$




USA.gov is the U.S. government's official web portal to all federal, state and local government web resources and services.